Aklavik Airport


Codes: CYKD/LAK
Name: Aklavik Airport
City: Aklavik
Country: Canada
Elevation: 23 ft.
Wikipedia:

Photos at Aklavik Airport


   Photos courtesy of SpottingLog. You can add your own sightings and photos by signing up for a free trial today.



No photos found.

Weather at Aklavik Airport


Time (UTC)DescriptionTempratureWindCloud coverageVisibilityPressureHumidity
18-Apr-2024 00:00Overcast Clouds2°C7 mph, SE87%305m1028hPa98%
18-Apr-2024 03:00Overcast Clouds1°C7 mph, SE91%10000m1027hPa97%
18-Apr-2024 06:00Overcast Clouds-4°C4 mph, S89%10000m1026hPa97%
18-Apr-2024 09:00Overcast Clouds-6°C4 mph, S99%10000m1026hPa96%
18-Apr-2024 12:00Overcast Clouds-6°C2 mph, SE96%10000m1026hPa95%
18-Apr-2024 15:00Overcast Clouds-3°C0 mph, SE99%10000m1025hPa92%
18-Apr-2024 18:00Overcast Clouds-0°C0 mph, NE99%10000m1025hPa86%
18-Apr-2024 21:00Overcast Clouds2°C4 mph, N100%10000m1026hPa90%
19-Apr-2024 00:00Overcast Clouds2°C7 mph, N99%2640m1027hPa94%
19-Apr-2024 03:00Overcast Clouds-0°C7 mph, N99%10000m1027hPa97%
19-Apr-2024 06:00Overcast Clouds-3°C7 mph, N99%10000m1028hPa96%
19-Apr-2024 09:00Overcast Clouds-4°C7 mph, N99%10000m1029hPa97%
19-Apr-2024 12:00Overcast Clouds-3°C4 mph, NW98%10000m1029hPa94%
19-Apr-2024 15:00Overcast Clouds-2°C2 mph, NW100%10000m1029hPa92%
19-Apr-2024 18:00Overcast Clouds-1°C4 mph, SE100%10000m1028hPa89%
19-Apr-2024 21:00Overcast Clouds1°C9 mph, SE98%10000m1027hPa80%
20-Apr-2024 00:00Broken Clouds2°C11 mph, SE67%10000m1025hPa73%
20-Apr-2024 03:00Few Clouds2°C11 mph, SE18%10000m1022hPa79%
20-Apr-2024 06:00Few Clouds-1°C9 mph, SE16%10000m1020hPa93%
20-Apr-2024 09:00Few Clouds-2°C9 mph, SE15%10000m1018hPa93%
20-Apr-2024 12:00Few Clouds-3°C7 mph, S13%10000m1016hPa93%
20-Apr-2024 15:00Few Clouds-3°C9 mph, NW11%10000m1017hPa84%
20-Apr-2024 18:00Scattered Clouds-1°C13 mph, N32%10000m1017hPa83%
20-Apr-2024 21:00Broken Clouds0°C20 mph, NW62%10000m1017hPa73%
21-Apr-2024 00:00Scattered Clouds0°C20 mph, NW49%10000m1017hPa71%
21-Apr-2024 03:00Overcast Clouds-1°C16 mph, NW85%10000m1017hPa82%
21-Apr-2024 06:00Overcast Clouds-2°C18 mph, NW90%10000m1017hPa77%
21-Apr-2024 09:00Broken Clouds-4°C18 mph, NW63%10000m1018hPa71%
21-Apr-2024 12:00Broken Clouds-6°C18 mph, NW78%10000m1020hPa73%
21-Apr-2024 15:00Overcast Clouds-7°C20 mph, NW98%10000m1021hPa71%
21-Apr-2024 18:00Overcast Clouds-7°C18 mph, NW96%10000m1021hPa65%
21-Apr-2024 21:00Broken Clouds-5°C13 mph, NW75%10000m1022hPa61%
22-Apr-2024 00:00Scattered Clouds-4°C11 mph, N48%10000m1021hPa58%
22-Apr-2024 03:00Broken Clouds-5°C9 mph, N62%10000m1022hPa61%
22-Apr-2024 06:00Broken Clouds-6°C9 mph, N81%10000m1023hPa65%
22-Apr-2024 09:00Overcast Clouds-7°C9 mph, N100%10000m1023hPa64%
22-Apr-2024 12:00Overcast Clouds-8°C11 mph, N100%10000m1025hPa64%
22-Apr-2024 15:00Overcast Clouds-9°C11 mph, N100%10000m1026hPa57%
22-Apr-2024 18:00Overcast Clouds-8°C9 mph, N100%10000m1026hPa52%
22-Apr-2024 21:00Overcast Clouds-7°C11 mph, N100%10000m1026hPa51%